TimeEST,TemperatureF,Dew PointF,Humidity,Sea Level PressureIn,VisibilityMPH,Wind Direction,Wind SpeedMPH,Gust SpeedMPH,PrecipitationIn,Events,Conditions,WindDirDegrees,DateUTC
12:14 AM,40.8,33.3,74,29.14,10.0,South,4.6,-,N/A,,Overcast,190,2012-12-21 05:14:00
12:34 AM,40.5,32.2,72,29.15,10.0,South,8.1,-,N/A,,Overcast,190,2012-12-21 05:34:00
12:54 AM,40.1,32.2,73,29.15,10.0,SSW,4.6,-,N/A,,Overcast,210,2012-12-21 05:54:00
1:14 AM,40.1,32.0,73,29.15,10.0,SSW,6.9,-,N/A,,Overcast,200,2012-12-21 06:14:00
1:34 AM,39.6,32.0,74,29.15,10.0,SSW,5.8,-,N/A,,Overcast,210,2012-12-21 06:34:00
1:54 AM,39.4,32.0,75,29.16,10.0,SW,8.1,-,N/A,,Overcast,230,2012-12-21 06:54:00
2:14 AM,39.2,32.0,75,29.17,10.0,West,5.8,-,N/A,,Overcast,260,2012-12-21 07:14:00
2:34 AM,39.2,32.2,76,29.17,10.0,West,8.1,-,N/A,,Unknown,270,2012-12-21 07:34:00
2:54 AM,39.2,32.9,78,29.19,7.0,West,10.4,-,N/A,Rain,Light Rain,280,2012-12-21 07:54:00
3:14 AM,38.5,34.3,85,29.19,7.0,WNW,13.8,18.4,N/A,,Overcast,300,2012-12-21 08:14:00
3:34 AM,37.6,33.4,85,29.21,7.0,NW,15.0,19.6,N/A,,Light Drizzle,310,2012-12-21 08:34:00
3:54 AM,37.0,33.1,86,29.22,7.0,NW,13.8,19.6,N/A,Snow,Light Snow,310,2012-12-21 08:54:00
4:14 AM,36.5,32.4,85,29.23,4.0,NW,17.3,28.8,N/A,Snow,Light Snow,320,2012-12-21 09:14:00
4:34 AM,36.5,31.6,83,29.25,7.0,NNW,15.0,27.6,N/A,Snow,Light Snow,330,2012-12-21 09:34:00
4:54 AM,36.0,30.2,80,29.27,10.0,NNW,19.6,28.8,N/A,,Overcast,330,2012-12-21 09:54:00
5:14 AM,35.6,30.0,80,29.28,7.0,NNW,19.6,32.2,N/A,Snow,Light Snow,340,2012-12-21 10:14:00
5:34 AM,35.4,30.9,84,29.29,5.0,NW,21.9,32.2,N/A,Snow,Light Snow,320,2012-12-21 10:34:00
5:54 AM,35.6,30.0,80,29.31,7.0,NW,18.4,29.9,N/A,Snow,Light Snow,320,2012-12-21 10:54:00
6:34 AM,34.7,28.8,79,29.34,4.0,NNW,20.7,33.4,N/A,Snow,Light Snow,330,2012-12-21 11:34:00
6:54 AM,34.9,27.9,76,29.36,4.0,NNW,15.0,34.5,N/A,Snow,Light Snow,330,2012-12-21 11:54:00
7:14 AM,34.2,30.7,87,29.37,1.2,NW,15.0,21.9,N/A,Snow,Light Snow,320,2012-12-21 12:14:00
7:34 AM,33.8,30.2,87,29.39,1.5,NW,13.8,25.3,N/A,Snow,Light Snow,320,2012-12-21 12:34:00
7:54 AM,34.0,28.8,81,29.40,2.0,NW,15.0,33.4,N/A,Snow,Light Snow,320,2012-12-21 12:54:00
8:14 AM,33.6,28.6,82,29.42,1.5,NW,15.0,32.2,N/A,Snow,Light Snow,320,2012-12-21 13:14:00
8:34 AM,33.3,29.5,86,29.43,0.8,NW,13.8,20.7,N/A,Snow,Light Snow,320,2012-12-21 13:34:00
8:54 AM,33.3,29.7,87,29.44,1.2,NW,11.5,28.8,N/A,Snow,Light Snow,310,2012-12-21 13:54:00
9:14 AM,33.4,28.2,81,29.45,1.5,NW,23.0,31.1,N/A,Snow,Light Snow,320,2012-12-21 14:14:00
9:34 AM,33.8,26.6,75,29.47,2.0,NNW,16.1,40.3,N/A,Snow,Light Snow,330,2012-12-21 14:34:00
9:54 AM,33.8,26.6,75,29.48,2.5,NW,21.9,32.2,N/A,Snow,Light Snow,320,2012-12-21 14:54:00
10:14 AM,33.8,27.1,77,29.49,2.5,NNW,17.3,28.8,N/A,Snow,Light Snow,330,2012-12-21 15:14:00
10:34 AM,33.8,27.3,77,29.51,2.0,NNW,13.8,27.6,N/A,Snow,Light Snow,330,2012-12-21 15:34:00
10:54 AM,34.3,26.6,73,29.52,2.5,NNW,19.6,29.9,N/A,Snow,Light Snow,330,2012-12-21 15:54:00
11:14 AM,34.7,26.4,72,29.53,4.0,NNW,23.0,29.9,N/A,Snow,Light Snow,330,2012-12-21 16:14:00
11:34 AM,34.9,25.0,67,29.55,5.0,NNW,17.3,34.5,N/A,Snow,Light Snow,330,2012-12-21 16:34:00
11:54 AM,35.2,24.6,65,29.55,7.0,NNW,20.7,36.8,N/A,Snow,Light Snow,340,2012-12-21 16:54:00
12:14 PM,35.6,24.6,64,29.56,4.0,NNW,20.7,32.2,N/A,Snow,Light Snow,340,2012-12-21 17:14:00
12:34 PM,35.6,25.3,66,29.57,4.0,NNW,20.7,34.5,N/A,Snow,Light Snow,340,2012-12-21 17:34:00
12:54 PM,34.7,28.2,77,29.58,1.0,NNW,20.7,31.1,N/A,Snow,Light Snow,330,2012-12-21 17:54:00
1:14 PM,34.9,28.6,78,29.59,1.5,NNW,16.1,23.0,N/A,Snow,Light Snow,330,2012-12-21 18:14:00
1:34 PM,36.0,26.2,68,29.60,7.0,NW,20.7,31.1,N/A,Snow,Light Snow,320,2012-12-21 18:34:00
1:54 PM,35.8,26.1,68,29.61,5.0,NNW,17.3,31.1,N/A,Snow,Light Snow,340,2012-12-21 18:54:00
2:14 PM,36.5,25.7,65,29.62,10.0,NNW,17.3,33.4,N/A,,Overcast,330,2012-12-21 19:14:00
2:34 PM,36.5,25.3,64,29.64,10.0,NNW,17.3,29.9,N/A,,Overcast,330,2012-12-21 19:34:00
2:54 PM,36.5,25.5,64,29.65,10.0,NNW,19.6,29.9,N/A,,Overcast,330,2012-12-21 19:54:00
3:14 PM,36.5,25.3,64,29.66,10.0,NNW,18.4,29.9,N/A,,Overcast,330,2012-12-21 20:14:00
3:34 PM,36.7,25.3,64,29.68,10.0,NNW,20.7,33.4,N/A,,Overcast,330,2012-12-21 20:34:00
3:54 PM,36.7,25.5,64,29.69,10.0,NW,19.6,32.2,N/A,,Overcast,320,2012-12-21 20:54:00
4:14 PM,36.5,26.2,66,29.71,10.0,NW,23.0,33.4,N/A,,Overcast,320,2012-12-21 21:14:00
4:34 PM,36.5,26.2,66,29.72,10.0,NNW,19.6,28.8,N/A,,Overcast,330,2012-12-21 21:34:00
4:54 PM,36.5,26.2,66,29.74,10.0,NW,21.9,31.1,N/A,,Overcast,320,2012-12-21 21:54:00
5:14 PM,36.5,25.5,64,29.75,10.0,NW,20.7,32.2,N/A,,Overcast,320,2012-12-21 22:14:00
5:34 PM,36.3,25.7,65,29.77,10.0,NW,18.4,28.8,N/A,,Overcast,320,2012-12-21 22:34:00
5:54 PM,36.3,25.3,64,29.78,10.0,NNW,19.6,29.9,N/A,,Overcast,330,2012-12-21 22:54:00
6:14 PM,36.3,25.2,64,29.80,10.0,NNW,20.7,31.1,N/A,,Overcast,330,2012-12-21 23:14:00
6:34 PM,36.1,24.6,63,29.81,10.0,NNW,23.0,35.7,N/A,,Overcast,330,2012-12-21 23:34:00
6:54 PM,36.1,24.6,63,29.82,10.0,NNW,19.6,31.1,N/A,,Overcast,330,2012-12-21 23:54:00
7:14 PM,36.0,24.6,63,29.84,10.0,NNW,18.4,28.8,N/A,,Overcast,330,2012-12-22 00:14:00
7:34 PM,36.0,24.6,63,29.84,10.0,NW,19.6,28.8,N/A,,Overcast,320,2012-12-22 00:34:00
7:54 PM,35.8,24.4,63,29.86,10.0,NNW,20.7,31.1,N/A,,Overcast,330,2012-12-22 00:54:00
8:14 PM,35.8,23.7,62,29.87,10.0,NNW,13.8,31.1,N/A,,Overcast,330,2012-12-22 01:14:00
8:34 PM,35.8,23.9,62,29.87,10.0,NNW,16.1,26.5,N/A,,Overcast,330,2012-12-22 01:34:00
8:54 PM,35.6,24.1,63,29.89,10.0,NW,13.8,21.9,N/A,,Overcast,320,2012-12-22 01:54:00
9:14 PM,35.6,23.9,62,29.89,10.0,NNW,15.0,26.5,N/A,,Overcast,330,2012-12-22 02:14:00
9:34 PM,35.6,23.4,61,29.91,10.0,NNW,17.3,24.2,N/A,,Overcast,330,2012-12-22 02:34:00
9:54 PM,35.6,23.9,62,29.92,10.0,NW,15.0,24.2,N/A,,Overcast,320,2012-12-22 02:54:00
10:14 PM,35.2,24.1,64,29.92,10.0,NW,16.1,23.0,N/A,,Overcast,320,2012-12-22 03:14:00
10:34 PM,35.2,23.5,62,29.93,10.0,NW,15.0,21.9,N/A,,Overcast,320,2012-12-22 03:34:00
10:54 PM,35.1,22.8,61,29.93,10.0,NW,16.1,23.0,N/A,,Overcast,320,2012-12-22 03:54:00
11:14 PM,35.1,21.0,57,29.94,10.0,NNW,10.4,28.8,N/A,,Overcast,340,2012-12-22 04:14:00
11:34 PM,34.9,21.9,59,29.95,10.0,NNW,16.1,23.0,N/A,,Overcast,330,2012-12-22 04:34:00
11:54 PM,34.7,22.6,61,29.96,10.0,NW,13.8,19.6,N/A,,Overcast,320,2012-12-22 04:54:00